This is the latest recevied weather packets stored in our database for station/object KD2DXJ. If no packets are shown the sender has not sent any weather packets the latest 10 day(s).
| Time | Temp. | Humidity | Pressure | Rain* | Wind** | Luminosity | Snow |
|---|---|---|---|---|---|---|---|
| 1777986119 | 18.33° C | 71% | 1001 hPa | 0 mm | - | 231 W/m² | - |
| 1777985815 | 18.33° C | 73% | 1001.1 hPa | 0 mm | - | 147 W/m² | - |
| 1777985512 | 18.33° C | 73% | 1001 hPa | 0 mm | - | 269 W/m² | - |
| 1777985209 | 17.22° C | 75% | 1000.9 hPa | 0 mm | - | 189 W/m² | - |
| 1777984905 | 17.22° C | 77% | 1001.1 hPa | 0 mm | - | 118 W/m² | - |
| 1777984601 | 16.67° C | 80% | 1001.1 hPa | 0 mm | - | 117 W/m² | - |
| 1777984298 | 16.67° C | 80% | 1001 hPa | 0 mm | - | 66 W/m² | - |
| 1777983994 | 16.11° C | 80% | 1001.1 hPa | 0 mm | - | 51 W/m² | - |
| 1777983692 | 16.11° C | 80% | 1001.1 hPa | 0 mm | - | 31 W/m² | - |
| 1777983389 | 16.11° C | 82% | 1001.3 hPa | 0 mm | - | 60 W/m² | - |
| 1777983085 | 15.56° C | 83% | 1001.2 hPa | 0 mm | - | 30 W/m² | - |
| 1777982781 | 16.11° C | 83% | 1001.2 hPa | 0 mm | - | 25 W/m² | - |
| 1777982477 | 16.11° C | 81% | 1000.9 hPa | 0 mm | - | 24 W/m² | - |
| 1777982172 | 16.11° C | 80% | 1001 hPa | 0 mm | - | 54 W/m² | - |
| 1777981870 | 16.11° C | 80% | 1000.7 hPa | 0 mm | - | 58 W/m² | - |
| 1777981566 | 16.11° C | 81% | 1001.2 hPa | 0 mm | - | 51 W/m² | - |
| 1777981263 | 16.11° C | 80% | 1001.1 hPa | 0 mm | - | 175 W/m² | - |
| 1777980959 | 15.56° C | 84% | 1001 hPa | 0 mm | - | 188 W/m² | - |
| 1777980656 | 15° C | 85% | 1001.2 hPa | 0 mm | - | 139 W/m² | - |
| 1777980352 | 15° C | 86% | 1001.1 hPa | 0 mm | - | 104 W/m² | - |
| 1777980051 | 14.44° C | 88% | 1000.8 hPa | 0 mm | - | 118 W/m² | - |
| 1777979744 | 13.89° C | 90% | 1000.9 hPa | 0 mm | - | 97 W/m² | - |
| 1777979440 | 13.89° C | 91% | 1000.9 hPa | 0 mm | - | 76 W/m² | - |
| 1777979137 | 13.89° C | 93% | 1000.8 hPa | 0 mm | - | 63 W/m² | - |
| 1777978834 | 13.89° C | 93% | 1000.9 hPa | 0 mm | - | 29 W/m² | - |
* Rain latest hour (hover to see other rain measurements)
** Current wind speed in m/s (hover to see current wind gust speed)